Location: ????????
(55.0559°N, 39.1270°E)
Time: 08:50:16
(UTC+00:00)

SL-16 R/B - Pass Details

Date: 15 November 2025
Orbit: 841 x 844 km, 71.0° (Epoch: 14 December)

Event Time Altitude Azimuth Distance (km) Brightness Sun altitude
Exits shadow 04:08:27 - 320° (NW) 2,952 4.5 -6.8°
Reaches altitude 10° 04:10:14 10° 332° (NNW) 2,478 4.2 -6.6°
Maximum altitude 04:14:02 18° 14° (NNE) 1,976 4.1 -6.1°
Drops below altitude 10° 04:17:50 10° 57° (ENE) 2,476 5.1 -5.6°
Sets 04:21:08 0° 76° (ENE) 3,409 6.3 -5.2°
